Tracking 31027 objects as of 19-Jul-2025
HD Live streaming from Space Station
objects crossing your sky now

SL-14 DEB

Track SL-14 DEB now!
10-day predictions


NORAD ID: 26030
Int'l Code: 1991-068AU
Perigee: 1,338.8 km
Apogee: 1,461.8 km
Inclination: 82.7 °
Period: 113.6 minutes
Semi major axis: 7771 km
RCS: 0.0026 m2 (small)
Launch date: September 28, 1991
Source: Commonwealth of Independent States (former USSR) (CIS)
Launch site: PLESETSK MISSILE AND SPACE COMPLEX (PKMTR)

Note: This is SATELLITE DEBRIS
Your satellite tracking list
PRISMA
Track 1 satellite(s)




NASA's NSSDC Master Catalog

Two Line Element Set (TLE):
1 26030U 91068AU  25197.43184031  .00000131  00000-0  62269-3 0  9996
2 26030  82.6748 251.0047 0079141 331.0959  43.0948 12.67255242550081
Source of the keplerian elements: AFSPC